Regional Weather Roundup
Issued by NWS

Home | Current Version | Previous Version | Graphics & Text | Print | Product List | Glossary Off
Versions: 1 2 3 4 5 6 7 8 9 10 11 12 13 14 15 16 17 18 19 20 21 22 23 24 25 26 27 28 29 30 31 32 33 34 35 36 37 38 39 40 41 42 43 44 45 46 47 48 49 50

000
ASUS43 KMKX 021600
RWRWI

WISCONSIN REGIONAL WEATHER ROUNDUP
NATIONAL WEATHER SERVICE MILWAUKEE/SULLIVAN WI
1100 AM CDT WED SEP 02 2015

NOTE: "FAIR" INDICATES FEW OR NO CLOUDS BELOW 12,000 FEET WITH NO
SIGNIFICANT WEATHER AND/OR OBSTRUCTIONS TO VISIBILITY.

WIZ001-002-006>008-014>016-023>028-021700-
NORTHWEST WISCONSIN

CITY           SKY/WX    TMP DP  RH WIND       PRES   REMARKS
SUPERIOR ARPT  CLOUDY    63  63 100 E10G17    29.99R FOG
ASHLAND        CLOUDY    69  69 100 NE8       30.00F
HAYWARD        CLOUDY    68  65  90 NE6       30.00S
SIREN          LGT RAIN  67  65  93 SE8       29.97R
CUMBERLAND     CLOUDY    66  64  94 S9        29.99R
RICE LAKE      CLOUDY    68  65  92 SE10      30.01R
CHETEK         CLOUDY   N/A N/A N/A S3        30.01R
LADYSMITH      LGT RAIN  68  66  93 E5        30.03R
EAU CLAIRE     LGT RAIN  69  67  93 N7        29.97S FOG
MENOMONIE      TSTM      68  67  94 NE6       29.97S
NEW RICHMOND   LGT RAIN  67  65  94 SE7       29.96S
OSCEOLA        CLOUDY    69  69 100 SE9       29.97S
$$

WIZ003>005-009-010-017-018-021700-
NORTH CENTRAL WISCONSIN

CITY           SKY/WX    TMP DP  RH WIND       PRES   REMARKS
MANITOWISH WTR LGT RAIN  67  67 100 N5        30.04R
ARBOR VITAE    LGT RAIN  67  65  91 N5        30.03R
WOODRUFF       LGT RAIN  67  65  91 N5        30.03R
RHINELANDER    CLOUDY    70  63  78 CALM      30.03R
EAGLE RIVER    CLOUDY    67  64  91 NE5       30.02R
LAND O LAKES   CLOUDY    67  65  93 N3        30.03S
PHILLIPS       RAIN      67  65  95 SE3       30.03R
TOMAHAWK       CLOUDY    70  65  84 N3        30.03R
MEDFORD        DRIZZLE   71  66  85 NE5       30.02S
MERRILL        PTSUNNY   72  71  98 N6        30.01R
$$

WIZ029-030-035-036-043>047-021700-
CENTRAL WISCONSIN

CITY           SKY/WX    TMP DP  RH WIND       PRES   REMARKS
WAUSAU         PTSUNNY   79  70  74 NW6       29.98S HX  82
MOSINEE        MOSUNNY   79  73  83 SW5       30.01R HX  82
MARSHFIELD     PTSUNNY   81  68  64 NW7       30.00S HX  84
STEVENS POINT  PTSUNNY   79  69  73 W5        30.01R HX  81
WAUPACA        PTSUNNY   83  72  69 S6        29.99S HX  89
WAUTOMA        NOT AVBL
WISC RAPIDS    MOSUNNY   83  69  62 W8        30.01S HX  86
CAMP DOUGLAS   NOT AVBL
$$

WIZ011>013-019>022-031-037>040-048>050-021700-
NORTHEAST WISCONSIN

CITY           SKY/WX    TMP DP  RH WIND       PRES   REMARKS
ANTIGO         PTSUNNY   77  71  81 W6        30.02S
SHAWANO        PTSUNNY   83  73  70 W3        29.98F HX  89
OCONTO         MOSUNNY   83  78  84 SW6       29.97S HX  92
STURGEON BAY   MOSUNNY   82  73  74 W7        30.00S HX  88
GREEN BAY      MOSUNNY   84  74  71 W6        29.98S HX  91
MANITOWOC      NOT AVBL
APPLETON       PTSUNNY   82  70  65 S5        29.99S HX  86
CLINTONVILLE   PTSUNNY   81  70  69 CALM      29.98S HX  84
OSHKOSH        MOSUNNY   83  72  69 VRB5      29.99F HX  88
$$

WIZ032>034-041-042-053>061-021700-
SOUTHWEST WISCONSIN

CITY           SKY/WX    TMP DP  RH WIND       PRES   REMARKS
LA CROSSE      MOSUNNY   79  69  71 S10       29.96S HX  81
SPARTA         MOSUNNY   80  66  62 SW3       29.98F HX  82
VIROQUA          N/A     76  69  78 SW5       30.01S
BOSCOBEL       CLOUDY    82  69  64 SW8       29.99F HX  85
PRAIRIE DU CHI CLOUDY    77  67  70 SW7       29.99S
PLATTEVILLE    CLOUDY    79  72  80 SW10      30.02S HX  82
$$

WIZ056-057-062-063-064-067-068-021700-
SOUTH CENTRAL WISCONSIN

CITY           SKY/WX    TMP DP  RH WIND       PRES   REMARKS
REEDSBURG      SUNNY     83  69  64 SW12      29.99S HX  86
BARABOO/DELLS  SUNNY     83  65  54 SW9       30.00S HX  85
LONE ROCK      NOT AVBL
MINERAL POINT  PTSUNNY   81  70  69 S12       30.03S HX  84
MADISON        PTSUNNY   83  68  60 SW8       30.00F HX  86
MIDDLETON      MOSUNNY   84  66  54 SW8       30.01F HX  86
WATERTOWN      SUNNY     81  74  80 SW5       30.02F HX  86
MONROE         PTSUNNY   81  68  65 S9        30.03F HX  83
JANESVILLE     SUNNY     84  70  61 SW8       30.02F HX  88
$$

WIZ051-052-058>065-066-070>072-021700-
SOUTHEAST WISCONSIN

CITY           SKY/WX    TMP DP  RH WIND       PRES   REMARKS
MILWAUKEE      MOSUNNY   84  70  62 SW6       30.02F HX  88
WAUKESHA       NOT AVBL
MILWAUKEE/TIMM SUNNY     82  64  54 W9        30.02F HX  84
RACINE         SUNNY     85  69  58 VRB6      30.04F HX  89
BURLINGTON     SUNNY     81  69  67 SW5       30.03F HX  84
KENOSHA        SUNNY     84  71  65 SW8       30.03F HX  89
FOND DU LAC    SUNNY     82  72  71 SW8       30.00F HX  87
SHEBOYGAN      SUNNY     85  72  65 VRB5      30.00F HX  91
WEST BEND      SUNNY     82  68  61 CALM      30.01F HX  85
JUNEAU         MOSUNNY   80  70  73 S7        30.03F HX  83
$$

LSZ147-162-021700-
LAKE SUPERIOR

STATION/POSITION TIME  TEMP    WIND        PRES    WAVE
                       AIR SEA DIR/SP/G            HT/PER
                 (UTC) (F)     (DEG/KT/KT) (MB)    (FT/S)
W MID LAKE BUOY  1450   57 56  100/  4/  4 1016.2R   0
DEVILS ISLAND    1500   66      60/ 16/ 16 1016.1F
PORT WING        1502   64      50/  4     1016.3
SAXON HARBOR     1500   65      CALM  /  7 1015.9R
$$

LMZ867-665-643>646-021700-
LAKE MICHIGAN

STATION/POSITION TIME  TEMP    WIND        PRES    WAVE
                       AIR SEA DIR/SP/G            HT/PER
                 (UTC) (F)     (DEG/KT/KT) (MB)    (FT/S)
CHAMBERS ISLAND  1500   75     170/  2/  5 1014.9R
N MID LAKE BUOY  1450   65 65  210/  6/  6 1014.7R   1/ 4
NORTHPORT PIER   1500   67     150/  4/  5 1014.9S
SISTER BAY       1504   80        CALM       N/A
ALGOMA LAKESHORE 1514             CALM       N/A
KEWAUNEE LAKESHO 1500   68     160/  4/  6 1014.4R
SHEBOYGAN LAKESH 1500   76     180/  8/  9 1015.9R
PORT WASHINGTON  1500   63      70/  2/  4 1016.9
ATWATER BUOY     1500   60     160/  6/  8 1017.9S
MILWAUKEE LAKESH 1510   71     150/  7/  8   N/A
S MID LAKE BUOY  1450   72 70  210/ 10/ 12 1016.8F
KENOSHA   LAKESH 1500   76     240/  4/  7 1016.9S
$$

TC  - TEMPERATURE IN CELSIUS
VSB - VISIBILITY IN STATUTE MILES
WCI - WIND CHILL INDEX
HX  - HEAT INDEX




USA.gov is the U.S. government's official web portal to all federal, state and local government web resources and services.